Date,TemperatureHighF,TemperatureAvgF,TemperatureLowF,DewpointHighF,DewpointAvgF,DewpointLowF,HumidityHigh,HumidityAvg,HumidityLow,PressureMaxIn,PressureMinIn,WindSpeedMaxMPH,WindSpeedAvgMPH,GustSpeedMaxMPH,PrecipitationSumIn
2013-10-1,79,62,51,69,60,51,100,91,69,30.17,30.07,4,0,4,0.00
2013-10-2,79,65,54,70,61,54,100,90,67,30.19,30.10,3,0,3,0.00
2013-10-3,81,65,55,72,62,55,100,91,72,30.17,30.09,5,0,5,0.00
2013-10-4,83,66,55,72,62,21,100,91,66,30.19,30.11,5,0,5,0.00
2013-10-5,83,67,56,73,64,56,100,90,67,30.18,30.07,10,0,10,0.00
2013-10-6,80,66,55,72,63,55,100,91,72,30.09,29.92,7,0,7,0.00
2013-10-7,67,61,50,64,59,30,100,93,73,30.03,29.84,0,0,0,1.16
2013-10-8,68,56,48,57,52,48,100,88,67,30.20,30.01,22,0,22,0.00
2013-10-9,70,54,42,56,49,42,100,85,58,30.21,30.11,0,0,0,0.00
2013-10-10,74,57,44,62,53,23,100,87,64,30.14,30.03,0,0,0,0.00
2013-10-11,76,60,48,64,55,48,100,86,62,30.05,29.97,0,0,0,0.00
2013-10-12,77,62,50,67,58,50,100,89,69,30.11,30.01,0,0,0,0.00
2013-10-13,72,64,59,68,63,59,100,95,84,30.22,30.11,0,0,0,0.10
2013-10-14,70,62,57,66,61,15,100,96,84,30.23,30.15,0,0,0,0.00
2013-10-15,67,60,53,62,58,33,100,95,83,30.20,30.07,0,0,0,0.00
2013-10-16,71,59,49,64,57,-15,100,94,78,30.09,29.97,0,0,0,0.00
2013-10-17,72,63,57,69,62,-14,100,97,88,29.99,29.86,0,0,0,0.08
2013-10-18,71,57,46,63,54,33,100,91,73,30.03,29.93,0,0,0,0.00
2013-10-19,67,57,46,61,55,26,100,93,74,29.97,29.86,0,0,0,0.00
2013-10-20,66,50,-14,55,46,-19,100,88,66,30.08,29.95,0,0,0,0.00
2013-10-21,69,50,36,59,47,36,100,91,70,30.13,29.99,0,0,0,0.00
2013-10-22,70,57,48,60,54,47,100,89,68,30.01,29.82,0,0,0,0.00
2013-10-23,62,47,37,52,42,32,100,82,57,30.00,29.76,0,0,0,0.00
2013-10-24,59,44,31,46,37,1,95,79,60,30.12,29.99,0,0,0,0.00
2013-10-25,50,38,28,37,32,26,91,78,58,30.30,30.12,0,0,0,0.00
2013-10-26,57,38,24,44,33,22,97,83,60,30.29,30.04,0,0,0,0.00
2013-10-27,68,52,38,56,46,14,98,83,62,30.11,30.03,0,0,0,0.00
2013-10-28,68,54,43,61,52,-2,100,94,76,30.24,30.09,0,0,0,0.04
2013-10-29,68,56,48,60,53,27,100,90,41,30.32,30.21,0,0,0,0.00
2013-10-30,76,59,49,65,56,36,100,89,66,30.27,30.15,0,0,0,0.00
2013-10-31,68,59,50,62,57,50,100,93,78,30.18,29.89,0,0,0,0.04